www.pogodaiklimat.ru

Погода и климат >> Архив погоды >> Россия >> Чукотка >> 21 км


ПОГОДА на 21 км

  • Прогноз погоды на 21 км
  • Монитор погоды на 21 км

АРХИВ ПОГОДЫ на 21 км

Время (UTC), дата Ветер
(напр.,м/с)
 
Видим.   Явления Облачность Т
(С)
Тd
(С)
f
(%)
Тe
(С)
Тes
(С)
Комфортность P
(гПа)
Po
(гПа)
Тmin
(С)
Tmax
(С)
R
(мм)
R24
(мм)
S
(см)
12 13.06 В 7 н/о н/о +18.9 -4.1 21 +18 +18 1009.1 989.8
15 13.06 В 7-10
{11}
н/о н/о +19.0 -3.9 21 +18 +18 1008.9 989.5
18 13.06 Ю 4
{10}
н/о н/о +15.8 +0.2 35 +15 +15 1009.8 990.2
21 13.06 Ю 5 н/о н/о +17.3 +3.3 39 +17 +17 1010.5 991.0 +13.7
00 14.06 Ю 4 н/о н/о +20.4 -0.4 25 +21 +21 комфорт 1010.9 991.6
03 14.06 Ю 3 н/о н/о +22.6 -5.4 15 +21 +21 комфорт 1011.2 992.0
06 14.06 Ю 2 н/о н/о +23.6 -7.9 12 +21 +21 комфорт 1011.2 992.1
09 14.06 Ю 2 н/о н/о +21.6 -4.9 16 +20 +20 1012.1 992.8 +24.0
12 14.06 В 4 н/о н/о +20.1 -6.1 16 +20 +20 1012.9 993.5
18 14.06 ЮВ 5 н/о н/о +20.0 -0.6 25 +20 +20 1014.7 995.3
21 14.06 Ю 5 н/о н/о +19.3 +1.9 31 +19 +19 1015.9 996.4
00 15.06 Ю 4 н/о н/о +22.1 +3.7 30 +22 +22 комфорт 1016.1 996.8
03 15.06 Ю 3 н/о н/о +23.8 +2.0 24 +23 +23 комфорт 1016.0 996.8
06 15.06 С 4 н/о н/о +22.2 +3.3 29 +22 +22 комфорт 1015.9 996.7
09 15.06 С 3 н/о н/о +21.8 -1.2 21 +21 +21 комфорт 1016.1 996.8 +24.7
12 15.06 СВ 2 н/о н/о +21.3 -1.4 22 +21 +21 комфорт 1016.3 996.9
15 15.06 ЮВ 6 н/о н/о +20.3 -0.4 25 +20 +20 1015.9 996.5
18 15.06 ЮВ 3 н/о н/о +20.9 +1.8 28 +22 +22 комфорт 1016.1 996.7
21 15.06 Ю 2 н/о н/о +21.8 +3.4 30 +22 +22 комфорт 1015.6 996.3 +18.3
00 16.06 Ю 4 н/о н/о +22.9 +2.9 27 +23 +23 комфорт 1015.1 995.8
03 16.06 С 2 н/о н/о +23.0 +4.2 29 +23 +23 комфорт 1014.2 995.1
09 16.06 С 3 н/о н/о +18.9 -0.0 28 +19 +19 1014.0 994.5 +24.2
12 16.06 СВ 2 н/о н/о +20.5 +0.4 26 +21 +21 комфорт 1014.0 994.6
18 16.06 Ю 2 н/о н/о +15.4 +5.0 50 +15 +15 1014.6 994.9
21 16.06 Ю 4 н/о н/о +16.1 +4.7 47 +15 +15 1015.0 995.4 +13.9
00 17.06 Ю 2 н/о н/о +21.8 +3.3 30 +22 +22 комфорт 1014.7 995.4
03 17.06 С 3 н/о н/о +22.3 +4.0 30 +22 +22 комфорт 1014.0 994.8
06 17.06 В 6
{11}
н/о н/о +24.9 -2.3 16 +23 +23 комфорт 1013.7 994.6
09 17.06 В 9-12
{12}
н/о н/о +20.7 -2.5 21 +20 +20 1013.8 994.5 +25.7
12 17.06 СВ 4
{12}
н/о н/о +19.4 -4.4 20 +19 +19 1014.2 994.8
15 17.06 В 4
{12}
н/о н/о +18.7 -3.3 22 +19 +19 1014.1 994.6
18 17.06 С 1 н/о н/о +20.0 -3.0 21 +21 +21 комфорт 1013.9 994.5
21 17.06 ЮВ 3 н/о н/о +22.1 -1.1 21 +21 +21 комфорт 1013.2 993.9 +18.1
00 18.06 С 3 н/о н/о +22.0 -1.5 21 +21 +21 комфорт 1012.9 993.6
03 18.06 С 5 н/о н/о +22.8 -3.4 17 +21 +21 комфорт 1011.8 992.6
06 18.06 С 3 н/о н/о +23.7 -3.3 16 +22 +22 комфорт 1011.1 992.0
09 18.06 ЮВ 4 н/о н/о +18.4 -0.1 29 +18 +18 1011.4 992.0 +23.8
12 18.06 В 5 н/о н/о +18.8 -4.8 20 +18 +18 1011.1 991.7
15 18.06 СВ 2 н/о н/о +17.4 -2.3 26 +18 +18 1011.2 991.7
21 18.06 Ю 2 н/о н/о +13.8 +3.3 49 +14 +14 1012.1 992.3 +8.2
00 19.06 Ю 4 н/о н/о +16.4 +2.7 40 +16 +16 1012.3 992.7
03 19.06 ЮВ 2 н/о н/о +16.7 +2.3 38 +17 +17 1012.3 992.8
06 19.06 Ю 1 н/о н/о +16.7 +3.7 42 +18 +18 1012.6 993.0
09 19.06 ЮВ 2 н/о н/о +16.2 +3.4 42 +16 +16 1013.4 993.8 +19.4
12 19.06 ЮВ 2 н/о н/о +14.6 -0.3 36 +15 +15 1014.6 994.8
21 19.06 СЗ 2 н/о н/о +17.4 +1.7 35 +18 +18 1015.3 995.7 +10.4

 

Местоположение метеостанции 21 км (Чукотка, Россия): широта 69.63 долгота 170.83 высота над уровнем моря 165 м.

В архиве по умолчанию представлена погода на 21 км за последнюю неделю. Архивные данные за месяц целиком и за предыдущие месяцы, начиная с января 2011 года, Вы можете получить, выбрав интересующий диапазон дат из раскрывающегося списка и нажав кнопку "Ввод!".


*Определитесь, кто Вы:
робот инопланетянин человек

Внимание! Время в таблицах - всемирное. Для получения местного времени необходимо прибавить поправку, которая равна 12 ч.

Смотрите также архив погоды в соседних городах и на ближайших метеорологических станциях:

Погода в Певеке (Чукотка, Россия) (26 км)
Погода в Валькаркае (Чукотка, Россия) (50 км)
Погода в Чауне (Чукотка, Россия) (84 км)
Погода в Комсомольской (Чукотка, Россия) (96 км)
Погода на Айон Острове (Чукотка, Россия) (117 км)
Погода в Паляваам-Глубокой (Чукотка, Россия) (139 км)
Погода в Майской (Чукотка, Россия) (158 км)
Погода в Раучуе (Чукотка, Россия) (169 км)
Погода на Мысе Биллингс (Чукотка, Россия) (189 км)
Погода в Билибино (Чукотка, Россия) (250 км)

Пояснения к столбцам:

Ветер - указаны скорость ветра в м/с - средняя за 10 мин, порывы в срок и между сроками (в фигурных скобках) и направление, откуда дует ветер: С - северный, СВ - северо-восточный, В - восточный, ЮВ - юго-восточный, Ю - южный, ЮЗ - юго-западный, З - западный, СЗ - северо-западный.
Видимость - горизонтальная дальность видимости в метрах или километрах. При видимости от 1 до 10 км при отсутствии осадков обычно наблюдается дымка, при ухудшении видимости до 1 км и менее - туман. В сухую погоду видимость может ухудшаться дымом, пылью или мглою.
Явления - указаны атмосферные явления, наблюдавшиеся в срок или в последний час перед сроком; фигурными скобками обозначены явления, наблюдавшиеся между сроками (за 1-3 часа до срока); квадратными скобками обозначены град или гололедные отложения с указанием их диаметра в мм.
Облачность - указаны через наклонную черту общая и нижняя облачность в баллах и высота нижней границы облаков в метрах; квадратными скобками обозначены формы облаков: Ci - перистые, Cs - перисто-слоистые, Cc - перисто-кучевые, Ac - высококучевые, As - высокослоистые, Sc - слоисто-кучевые, Ns - слоисто-дождевые, Cu - кучевые, Cb - кучево-дождевые. Подробнее классификацию облаков см. в Атласе облаков (PDF).
T - Температура воздуха - температура, измеренная на высоте 2 м над землей.
Td - Температура точки росы - температура, при понижении до которой содержащийся в воздухе водяной пар достигнет насыщения.
f - Относительная влажность воздуха - влажноcть воздуха, измеренная на высоте 2 м над землей.
Te - Эффективная температура - температура, которую ощущает одетый по сезону человек в тени. Характеристика душности погоды. При расчете учитывается влияние влажности воздуха и скорости ветра на теплоощущения человека.
Tes - Эффективная температура на солнце - температура, которую ощущает человек, с поправкой на солнечный нагрев. Характеристика знойности погоды. Зависит от высоты солнца над горизонтом, облачности и скорости ветра. Ночью, в пасмурную погоду, а также при ветре 12 м/с и более поправка равна нулю.
P - Атмосферное давление - приведенное к уровню моря атмосферное давление.
Po - Атмосферное давление - измеренное на уровне метеостанции атмосферное давление.
Tmin - Минимальная температура - минимум температуры воздуха на высоте 2 м над землей.
Tmax - Максимальная температура - максимум температуры воздуха на высоте 2 м над землей.
R - Количество осадков - Количество выпавших осадков за период времени, мм. При наведении курсора мыши на число - период времени, за который выпало указанное количество осадков.
R24 - Количество осадков - Количество выпавших осадков за 24 часа, мм.
S - Снежный покров - Высота снежного покрова, см. При наведении курсора мыши на число - состояние снежного покрова и степень покрытия местности в баллах.